Location: Unspecified
(51.5147°N, 7.4673°E)
Time: 04:41:28
(UTC+01:00)

A-11 Canister half - Pass Details

Date: 21 February 2026
Orbit: 1512 x 1687 km, 47.2° (Epoch: 7 March)

Event Time Altitude Azimuth Distance (km) Brightness Sun altitude
Rises 22:21:09 0° 251° (WSW) 4,938 12.0 -39.6°
Reaches altitude 10° 22:24:21 10° 249° (WSW) 3,945 11.3 -40.0°
Enters shadow 22:30:31 42° 235° (SW) 2,245 9.7 -40.7°
Maximum altitude 22:34:22 67° 170° (S) 1,770 - -41.1°
Drops below altitude 10° 22:44:07 10° 91° (E) 3,847 - -42.1°
Sets 22:47:12 0° 89° (E) 4,810 - -42.4°
